Location: Bergnerzell
(49.1816°N, 10.2565°E)
Time: 23:05:13
(UTC+00:00)

COSMOS 2523 - Visible Passes

Search period start: 18 November 2025 00:00
Search period end: 28 November 2025 00:00
Orbit: 537 x 631 km, 97.5° (Epoch: 18 November)

Date Brightness Start Highest point End Pass type
(mag) Time Alt. Az. Time Alt. Az. Time Alt. Az.
18 Nov ? 17:00:41 10° SE 17:04:55 50° ENE 17:09:11 10° N visible
18 Nov ? 18:37:21 10° SW 18:40:37 20° W 18:43:52 10° NW visible
19 Nov ? 17:06:46 10° SSE 17:11:04 58° ENE 17:15:22 10° N visible
19 Nov ? 18:43:52 10° SW 18:46:50 18° W 18:49:49 10° NW visible
20 Nov ? 17:12:52 10° SSE 17:17:13 67° ENE 17:21:34 10° N visible
20 Nov ? 18:50:27 10° SW 18:53:04 15° W 18:55:41 10° NW visible
21 Nov ? 17:18:59 10° SSE 17:23:22 77° ENE 17:27:44 10° N visible
21 Nov ? 18:57:08 10° WSW 18:59:18 13° W 19:01:28 10° WNW visible
22 Nov ? 17:25:07 10° SSE 17:29:31 88° ENE 17:33:54 10° NNW visible
22 Nov ? 19:04:01 10° WSW 19:05:32 12° W 19:07:03 10° WNW visible
23 Nov ? 05:06:10 10° E 05:06:24 10° E 05:06:37 10° E visible
23 Nov ? 15:58:28 10° E 16:00:49 14° ENE 16:03:10 10° NNE visible
23 Nov ? 17:31:17 10° S 17:35:40 81° WSW 17:40:01 10° NNW visible
24 Nov ? 05:11:08 10° ENE 05:12:37 12° E 05:14:05 10° ESE visible
24 Nov ? 16:04:13 10° E 16:06:53 16° ENE 16:09:33 10° NNE visible
24 Nov ? 17:37:27 10° S 17:41:49 71° WSW 17:46:09 10° NNW visible
25 Nov ? 05:16:47 10° ENE 05:18:50 13° E 05:20:52 10° ESE visible
25 Nov ? 16:10:01 10° ESE 16:12:57 18° ENE 16:15:53 10° NNE visible
25 Nov ? 17:43:39 10° S 17:47:58 61° W 17:52:16 10° NNW visible
26 Nov ? 05:22:34 10° NE 05:25:02 15° E 05:27:27 10° SE visible
26 Nov ? 16:15:51 10° ESE 16:19:02 20° ENE 16:22:11 10° NNE visible
26 Nov ? 17:49:51 10° S 17:54:07 53° W 17:58:21 10° NNW visible
27 Nov ? 05:28:27 10° NE 05:31:14 18° E 05:33:57 10° SE visible
27 Nov ? 16:21:43 10° ESE 16:25:06 23° ENE 16:28:27 10° NNE visible
27 Nov ? 17:56:05 10° S 18:00:16 45° W 18:04:25 10° NNW visible
